Regional Weather Roundup
Issued by NWS

Home | Current Version | Previous Version | Graphics & Text | Print | Product List | Glossary On
Versions: 1 2 3 4 5 6 7 8 9 10 11 12 13 14 15 16 17 18 19 20 21 22 23 24 25 26 27 28 29 30 31 32 33 34 35 36 37 38 39 40 41 42 43 44 45 46 47 48 49 50
000
ASUS45 KTFX 202319
RWRMT
MONTANA HOURLY WEATHER ROUNDUP
NATIONAL WEATHER SERVICE GREAT FALLS MT
419 PM MST SAT DEC 20 2014

NOTE: "FAIR" INDICATES FEW OR NO CLOUDS BELOW 12000 FEET WITH NO
SIGNIFICANT WEATHER AND/OR OBSTRUCTIONS TO VISIBILITY.

* THESE STATIONS ARE NOT UNDER NWS QUALITY CONTROL. THEY DO NOT
   REPORT WEATHER SUCH AS PRECIPITATION OR FOG.

MTZ001>007-043-210000-
WEST OF THE DIVIDE
CITY           SKY/WX    TMP DP  RH WIND       PRES   REMARKS
KALISPELL      LGT SNOW  36  30  79 CALM      29.78S
MISSOULA       CLOUDY    30  30 100 NW3       29.82F
BUTTE          CLOUDY    34  25  70 CALM      29.81F
MULLAN PASS    LGT SNOW  30  27  89 VRB5      29.69F VSB M1/4 WCI  25
* ESSEX        N/A       32  30  92 N/A        N/A
* EUREKA APT   PTSUNNY   39  28  65 SE9       29.75F WCI  33
* HAMILTON APT CLOUDY    36  30  79 CALM      29.78F
* LIBBY APT    CLOUDY    32  32 100 CALM       N/A
* LINCOLN      N/A       33  26  75 NE3        N/A
* LOOKOUT PASS N/A       30  30 100 S4         N/A
* POLSON       N/A       34  32  92 NE1        N/A
* RONAN APT    PTSUNNY   34  30  85 N/A        N/A
* SEELEY LAKE  N/A       28  25  89 N/A        N/A
* THOMP F APT  CLOUDY    39  34  82 N/A        N/A
* YAAK HILL    N/A       37  35  92 N/A        N/A
$$

MTZ008-052>055-210000-
SOUTHWEST MONTANA
CITY           SKY/WX    TMP DP  RH WIND       PRES   REMARKS
BOZEMAN        PTSUNNY   36  25  64 CALM      29.83F
DILLON         CLOUDY    36  25  64 S3        29.83F
* W YELLOWSTON CLOUDY    30  27  89 SW6G12     N/A   WCI  24
* THREE FORKS  PTSUNNY   39  39 100 N/A        N/A
* TWIN BRIDGES PTSUNNY   34  21  59 N/A        N/A
* BOULDER HILL N/A       30  20  66 S11        N/A   WCI  21
* MONIDA PASS  N/A       26  26 100 SE17       N/A   WCI  13
* RAYNOLDS PAS N/A       31  16  54 S9G17      N/A   WCI  23
* WHITEHALL    N/A       43  24  47 SW10G18    N/A
* WISE RIVER   N/A       33  26  75 NW2        N/A
$$

MTZ009>010-012-014-046-048-049-054-210000-
EAST SLOPES AND CENTRAL MONTANA
CITY           SKY/WX    TMP DP  RH WIND       PRES   REMARKS
CUT BANK       PTCLDY    34  23  64 CALM      29.69F
GREAT FALLS    PTSUNNY   39  25  57 SW10      29.73F WCI  32
HELENA         CLOUDY    36  28  73 W3        29.78F
MALMSTROM AFB  PTCLDY    34  27  76 SW12      29.76F WCI  25
* CONRAD       PTCLDY    41  28  60 CALM       N/A
* DEARBORN     N/A       43  25  49 E3G9       N/A
* EAST GLACIER N/A       31  25  78 W28G35     N/A   WCI  17
* MONARCH      N/A       35  16  46 SW18G30    N/A   WCI  24
* PENDROY      N/A       36  20  52 W6         N/A   WCI  31
* ROGERS PASS  N/A       29  24  82 S6G12      N/A   WCI  23
* SWEET GRASS  N/A       36  23  59 S12        N/A   WCI  28
* WHITE SULPH  N/A       35  21  57 SW13G19    N/A   WCI  26
$$

MTZ011-013-016-021-035-040-045-047-050-051-210000-
NORTH CENTRAL MONTANA
CITY           SKY/WX    TMP DP  RH WIND       PRES   REMARKS
HAVRE          SUNNY     37  27  67 SW7       29.73F WCI  32
LEWISTOWN      CLOUDY    37  27  67 SW13      29.76F WCI  29
* N BAR RANCH  CLOUDY    37  10  33 CALM      29.78F
* CHINOOK      PTCLDY    37  25  62 CALM      29.74F
* CHESTER      N/A       41  22  47 SW3        N/A
* DENTON       N/A       37  20  50 SE10       N/A   WCI  30
* GEYSER       N/A       38  19  46 N5         N/A   WCI  34
* JUDITH GAP   N/A       37  21  52 SW24G31    N/A   WCI  26
* LOMA         N/A       44  24  45 SW13G18    N/A
$$

MTZ017>020-022>027-061-062-210000-
NORTHEAST MONTANA
CITY           SKY/WX    TMP DP  RH WIND       PRES   REMARKS
GLASGOW        PTCLDY    39  25  57 W6        29.76F WCI  35
GLENDIVE       PTCLDY    37  23  57 W6        29.82S WCI  32
JORDAN         PTSUNNY   39  21  48 SW6       29.79F WCI  35
SIDNEY         PTSUNNY   39  27  62 SW8       29.80F WCI  33
WOLF POINT     PTCLDY    41  27  58 W10       29.78S
* BEAVER HILL  N/A       39  26  60 S9         N/A   WCI  33
* CIRCLE       N/A       39  27  62 N/A        N/A
* LINDSAY DVD  N/A       38  23  55 W12        N/A   WCI  30
* NAVAJO       N/A       34  29  82 W14        N/A   WCI  24
* PLENTYWOOD A SUNNY     37  32  82 SW5       29.74F WCI  33
* POPLAR APT   PTCLDY    39  27  62 S5        29.77S WCI  35
* SACO         N/A       39  23  53 SW2        N/A
$$

MTZ028>042-056>058-210000-
SOUTHCENTRAL AND SOUTHEAST MONTANA
CITY           SKY/WX    TMP DP  RH WIND       PRES   REMARKS
BAKER          PTSUNNY   37  25  62 W9        29.83F WCI  30
BILLINGS       CLOUDY    37  25  62 S8        29.83F WCI  31
LIVINGSTON     CLOUDY    43  21  42 SW31G36   29.78F
MILES CITY     PTCLDY    36  25  64 SW8       29.83F WCI  30
* FORSYTH APT  PTCLDY    39  25  57 E3        29.82F
* LAUREL APT   PTSUNNY   39  19  45 N/A        N/A
* ROUNDUP APT  CLOUDY    41  19  41 N/A        N/A
* ALZADA       N/A       39  25  57 SW2        N/A
* HYSHAM       N/A       38  21  50 W2         N/A
* LAME DEER    N/A       39  21  48 S5         N/A   WCI  35
* REED POINT   N/A       39  26  60 N/A        N/A
* ROSCOE HILL  N/A       39  10  30 NE6        N/A   WCI  35
$$

REGIONAL REPORTS...DAKOTAS
CITY           SKY/WX    TMP DP  RH WIND       PRES   REMARKS
WILLISTON      CLOUDY    37  30  76 W7        29.77S WCI  32
DICKINSON      SUNNY     34  25  70 W9        29.79S WCI  27
BEACH          SUNNY     37  27  67 SW10      29.82S WCI  30
CROSBY         LGT RAIN  34  34 100 SW8       29.74F WCI  27
TIOGA          N/A       32  32 100 SW12      29.78S WCI  23
WATFORD CITY   CLOUDY    39  30  70 SW6       29.76F WCI  35
BISMARCK       SUNNY     27  25  92 SE6       29.83F WCI  20
GRAND FORKS    FOG       28  27  96 S12       29.93F VSB 3    WCI  18
FARGO          FOG       30  28  92 S16G22    29.96S WCI  19
BUFFALO SD     PTCLDY    41  25  53 W9        29.79S
RAPID CITY     CLOUDY    41  27  58 E3        29.88S
$$

REGIONAL REPORTS...WYOMING/IDAHO/WASHINGTON
CITY           SKY/WX    TMP DP  RH WIND       PRES   REMARKS
GILLETTE       SUNNY     36  25  64 S6        29.86F WCI  31
SHERIDAN       PTSUNNY   39  27  62 E3        29.83F
CODY           PTSUNNY   34  23  64 SW6       29.84S WCI  29
YELLOWSTONE LA PTCLDY    27  21  78 W9        29.90F WCI  18
SALMON         CLOUDY    34  28  79 CALM      29.86F
MULLAN PASS    LGT SNOW  30  27  89 VRB5      29.69S VSB M1/4 WCI  25
SAND POINT     N/A       36  36 100 CALM      29.75F
SPOKANE        LGT RAIN  39  39 100 SE12      29.68F VSB 2    WCI  32
$$

REGIONAL REPORTS...ALBERTA
CITY           SKY/WX    TMP DP  RH WIND       PRES   REMARKS
CALGARY        PTSUNNY   37  18  46 S3        29.54F
LETHBRIDGE     PTCLDY    30  27  89 S12       29.64F WCI  20
MEDICINE HAT   PTCLDY    34  28  79 SW9       29.67F WCI  27
EDMONTON       PTSUNNY   27  16  63 S7        29.52F WCI  19
WATERTON GATE  N/A       36  25  64 SW18G24    N/A   WCI  26
CARDSTON       N/A       37  25  62 SW7        N/A   WCI  32
MILK RIVER     N/A       34  27  76 S10        N/A   WCI  26
$$

REGIONAL REPORTS...SASKATCHEWAN
CITY           SKY/WX    TMP DP  RH WIND       PRES   REMARKS
SWIFT CURRENT  N/A       30  25  82 SW13      29.67R WCI  20
REGINA         CLOUDY    30  30 100 S3        29.70S
VAL MARIE      N/A       32  25  75 SW5        N/A   WCI  27
ASSINIBOIA     N/A       34  28  79 W12        N/A   WCI  25
CORONACH       N/A       34  28  79 W13        N/A   WCI  25

$$



USA.gov is the U.S. government's official web portal to all federal, state and local government web resources and services.